sat.trackr.live / text

‹ back to catalog

STARLINK-30550

NORAD 58045 · 2023-156T

PAYLOAD ACTIVE UNKNOWN

§ Identity

Operator
Country
US
Launch date
2023-10-09
Launch site
AFWTR
Launch vehicle
Mass (kg)
RCS (m²)

Purposes: comms

External: N2YO · Heavens-Above · Gunter

§ Orbital elements

Epoch: 2026-09-20T11:44:09.752064Z

Period
93.85 min
Inclination
53.1588°
Eccentricity
0.0000781
Mean motion
15.34387811 rev/d
Perigee alt
462.2 km
Apogee alt
463.3 km
Semi-major
6,840.9 km
B*
5.0032e-6
RAAN
173.4570°
Arg perigee
142.8173°
Mean anomaly
217.2884°
Rev number
16,724

§ Raw data

STARLINK-305501 58045U 23156T   26263.48900176 -.00000207  00000+0  50032-5 0  99972 58045  53.1588 173.4570 0000781 142.8173 217.2884 15.34387811167246

JSON: /api/v1/satellites/58045 · /tle

For live sub-satellite position, see the globe view (requires WebGL).

§ Visibility from observer

Set your observer location to see the next 7 days of passes ≥ 10°. The values pass through the URL so the page stays shareable.

No JS? Fill the form by hand. The geolocation button needs JavaScript.